Location: Hamilton
(37.7830°S, 175.2830°E)
Time: 00:13:55
(UTC+13:00)

ISS - Pass Details

Date: 31 January 2019
Orbit: 403 x 411 km, 51.6° (Epoch: 18 February)

Event Time Altitude Azimuth Distance (km) Brightness Sun altitude
Exits shadow 04:37:01 61° 33° (NNE) 474 -3.7 -19.6°
Maximum altitude 04:37:06 62° 42° (NE) 473 -3.6 -19.6°
Drops below altitude 10° 04:40:25 10° 124° (ESE) 1,495 0.3 -19.1°
Sets 04:42:32 0° 127° (SE) 2,362 1.7 -18.8°
